Location: Voyageurs National Park
(48.5020°N, 92.9292°W)
Time: 08:56:43
(UTC-06:00)

Amateur Radio Satellites - All Passes

Search period start: 26 November 2014 08:26
Search period end: 27 November 2014 08:26
Location: Voyageurs National Park, 48.5020°N, 92.9292°W

Satellite Date Start Highest point End Downlink Frequencies (MHz)
Time Altitude Azimuth
POLYITAN 1 26 Nov 08:32:39 08:33:40 11° 56° (NE) 08:34:41 437.675
AAUSAT CUBESAT 2 26 Nov 08:33:46 08:36:45 18° 91° (E) 08:39:42 437.432
QB50P2 26 Nov 08:34:16 08:35:33 11° 56° (NE) 08:36:50 145.880/145.840
DOVE 4 26 Nov 08:35:06 08:37:30 15° 90° (E) 08:39:55 437.250
DUCHIFAT 1 26 Nov 08:39:37 08:41:23 12° 57° (ENE) 08:43:08 145.980
CANX-2 26 Nov 08:45:04 08:49:05 37° 97° (E) 08:53:05 2200.000
DX 1 26 Nov 08:48:10 08:49:47 12° 88° (E) 08:51:24 434.975-435.025
COMPASS 1 26 Nov 08:48:43 08:52:26 28° 95° (E) 08:56:07 437.405
NANOSAT C BR1 26 Nov 08:57:44 09:00:38 18° 61° (ENE) 09:03:32 145.865
QB50P1 26 Nov 09:07:13 09:10:30 22° 63° (ENE) 09:13:46 145.935-145.965
CINEMA 3 26 Nov 09:08:33 09:11:45 21° 93° (E) 09:14:59 145.822/145.860
TIGRISAT 26 Nov 09:08:39 09:12:21 30° 66° (ENE) 09:16:04 435.000
HO-68 26 Nov 09:13:27 09:20:37 65° 104° (ESE) 09:27:43 435.675
BUGSAT 1 26 Nov 09:16:20 09:19:39 23° 64° (ENE) 09:22:58 437.445
ZACube-1 26 Nov 09:16:35 09:18:21 12° 88° (E) 09:20:07 437.345
GOMX 1 26 Nov 09:17:08 09:21:11 50° 100° (E) 09:25:18 467.674
CUTE 1.7 & AOD 2 26 Nov 09:19:32 09:23:51 78° 103° (ESE) 09:28:09 437.475
UNISAT 6 26 Nov 09:22:07 09:26:06 40° 69° (ENE) 09:30:07 437.425
POPSAT HIP 1 26 Nov 09:31:18 09:35:12 36° 68° (ENE) 09:39:05 437.405
AISAT 26 Nov 09:44:39 09:47:22 16° 90° (E) 09:50:04 437.250
UKube-1 26 Nov 09:46:27 09:50:37 43° 99° (E) 09:54:45 .
BRITE-PL 26 Nov 09:47:18 09:51:24 58° 288° (WNW) 09:55:29 437.365/2234.400
FUNcube-1 26 Nov 09:50:08 09:53:42 26° 95° (E) 09:57:19 145.935
GONETS M04 26 Nov 09:50:25 09:58:39 42° 292° (WNW) 10:06:59
ANTELSAT 26 Nov 09:50:36 09:54:52 78° 74° (ENE) 09:59:09 437.575/2403.000
SEEDS 26 Nov 09:52:20 09:56:32 56° 288° (WNW) 10:00:43 437.485
Oscar 11 26 Nov 09:57:24 10:01:46 67° 102° (ESE) 10:06:05 145.826/435.025
POLYITAN 1 26 Nov 10:04:38 10:08:54 78° 74° (ENE) 10:13:10 437.675
SO-50 26 Nov 10:05:37 10:09:11 20° 27° (NNE) 10:12:46 436.795
QB50P2 26 Nov 10:06:31 10:10:47 82° 75° (ENE) 10:15:03 145.880/145.840
AAUSAT CUBESAT 2 26 Nov 10:08:37 10:12:43 50° 289° (WNW) 10:16:49 437.432
DOVE 4 26 Nov 10:11:36 10:15:42 59° 287° (WNW) 10:19:52 437.250
DELFI C3 26 Nov 10:12:09 10:16:19 83° 103° (ESE) 10:20:28 145.870
DUCHIFAT 1 26 Nov 10:12:21 10:16:37 89° 255° (WSW) 10:20:54 145.980
UWE-3 26 Nov 10:16:39 10:20:50 56° 101° (E) 10:25:04 435.000/436.395/437.385
CUBEBUG 2 26 Nov 10:17:04 10:21:17 65° 102° (ESE) 10:25:34 437.445
50 SAT 26 Nov 10:18:49 10:22:17 26° 95° (E) 10:25:45 437.505
CANX-2 26 Nov 10:21:20 10:24:53 26° 295° (WNW) 10:28:25 2200.000
DX 1 26 Nov 10:22:15 10:26:38 82° 286° (WNW) 10:30:58 434.975-435.025
COMPASS 1 26 Nov 10:24:24 10:28:11 32° 293° (WNW) 10:31:58 437.405
HUMSAT D 26 Nov 10:31:51 10:35:51 43° 99° (E) 10:39:51 437.325/437.525
NANOSAT C BR1 26 Nov 10:31:58 10:36:09 56° 259° (W) 10:40:21 145.865
QB50P1 26 Nov 10:42:05 10:46:09 44° 261° (W) 10:50:15 145.935-145.965
CINEMA 3 26 Nov 10:45:12 10:49:11 43° 290° (WNW) 10:53:15 145.822/145.860
TIGRISAT 26 Nov 10:45:19 10:49:05 31° 264° (W) 10:52:53 435.000
BUGSAT 1 26 Nov 10:50:54 10:54:57 42° 261° (W) 10:58:59 437.445
ZACube-1 26 Nov 10:51:01 10:55:15 76° 286° (WNW) 10:59:32 437.345
VELOX 1 26 Nov 10:53:29 10:57:56 71° 103° (ESE) 11:02:20 145.980
ESTCUBE 1 26 Nov 10:53:31 10:57:33 30° 95° (E) 11:01:33 437.505/2401.250
GOMX 1 26 Nov 10:56:10 10:59:02 18° 298° (WNW) 11:01:55 467.674
CUTE 1.7 & AOD 2 26 Nov 10:56:59 10:59:13 14° 301° (WNW) 11:01:28 437.475
UNISAT 6 26 Nov 10:59:43 11:03:05 22° 267° (W) 11:06:29 437.425
HO-68 26 Nov 11:01:44 11:07:54 32° 304° (NW) 11:14:02 435.675
POPSAT HIP 1 26 Nov 11:07:38 11:11:12 25° 266° (W) 11:14:46 437.405
TISAT 1 26 Nov 11:09:12 11:10:33 11° 87° (E) 11:11:54 437.305
SPROUT 26 Nov 11:19:28 11:21:36 13° 88° (E) 11:23:44 437.525
AISAT 26 Nov 11:20:03 11:24:27 63° 288° (WNW) 11:28:48 437.250
UKube-1 26 Nov 11:23:07 11:26:34 23° 297° (WNW) 11:30:00 .
FUNcube-1 26 Nov 11:26:19 11:30:08 34° 292° (WNW) 11:34:01 145.935
ANTELSAT 26 Nov 11:30:39 11:32:16 12° 273° (W) 11:33:53 437.575/2403.000
CUBEBUG 1 26 Nov 11:31:30 11:35:53 68° 102° (ESE) 11:40:13 437.445
Oscar 11 26 Nov 11:34:45 11:37:27 16° 300° (WNW) 11:40:10 145.826/435.025
POLYITAN 1 26 Nov 11:43:46 11:45:25 12° 272° (W) 11:47:03 437.675
SO-50 26 Nov 11:45:43 11:50:34 70° 49° (NE) 11:55:28 436.795
QB50P2 26 Nov 11:45:52 11:47:17 11° 273° (W) 11:48:43 145.880/145.840
DELFI C3 26 Nov 11:49:13 11:51:02 13° 302° (WNW) 11:52:51 145.870
50 SAT 26 Nov 11:54:01 11:57:38 32° 292° (WNW) 12:01:16 437.505
UWE-3 26 Nov 11:54:11 11:57:02 18° 298° (WNW) 11:59:54 435.000/436.395/437.385
CUBEBUG 2 26 Nov 11:55:01 11:57:34 16° 299° (WNW) 12:00:09 437.445
GONETS M04 26 Nov 11:56:34 11:58:38 11° 320° (NW) 12:00:42
Oscar 19 26 Nov 11:57:31 12:02:09 36° 65° (ENE) 12:06:49 437.125/150
DX 1 26 Nov 12:00:37 12:02:10 12° 305° (NW) 12:03:42 434.975-435.025
HUMSAT D 26 Nov 12:08:15 12:11:26 22° 296° (WNW) 12:14:38 437.325/437.525
YUBILEINY 26 Nov 12:08:22 12:15:49 30° 62° (ENE) 12:23:11 435.215
SWISSCUBE 26 Nov 12:17:18 12:18:45 11° 86° (E) 12:20:11 437.505
ESTCUBE 1 26 Nov 12:30:21 12:34:27 34° 294° (WNW) 12:38:31 437.505/2401.250
ZACube-1 26 Nov 12:30:23 12:30:55 10° 304° (NW) 12:31:27 437.345
VELOX 1 26 Nov 12:31:19 12:34:00 16° 302° (WNW) 12:36:41 145.980
AO-7 26 Nov 12:35:22 12:39:53 16° 36° (NE) 12:44:25 29.400- 29.500
AUBIESAT-1 26 Nov 12:40:42 12:44:06 18° 95° (E) 12:47:26 437.475
CUSAT 1 26 Nov 12:42:32 12:44:53 29° 96° (E) 12:47:14 437.405
TISAT 1 26 Nov 12:42:45 12:46:59 81° 286° (WNW) 12:51:11 437.305
M-CUBED/EXP-1 PRIME 26 Nov 12:45:56 12:49:46 22° 97° (E) 12:53:32 437.505
BEESAT 26 Nov 12:46:36 12:50:09 20° 91° (E) 12:53:40 436.000
ITAMSAT 1 26 Nov 12:51:12 12:56:08 44° 67° (ENE) 13:01:04 435.822/435.867
SPROUT 26 Nov 12:53:55 12:58:12 70° 286° (WNW) 13:02:27 437.525
CUBEBUG 1 26 Nov 13:09:05 13:11:47 16° 301° (WNW) 13:14:28 437.445
DANDE 26 Nov 13:10:06 13:12:45 63° 100° (E) 13:15:22 436.750
HORYU 2 26 Nov 13:25:44 13:29:12 23° 62° (ENE) 13:32:41 437.375
Gurwin Techsat 1B 26 Nov 13:25:48 13:30:56 52° 69° (ENE) 13:36:06 435.225
SO-50 26 Nov 13:27:07 13:30:41 21° 247° (WSW) 13:34:16 436.795
Oscar 19 26 Nov 13:36:51 13:41:30 35° 264° (W) 13:46:12 437.125/150
ITUPSAT 1 26 Nov 13:41:47 13:46:35 61° 102° (ESE) 13:51:19 437.325
SWISSCUBE 26 Nov 13:52:33 13:57:23 84° 104° (ESE) 14:02:11 437.505
JAS-2 26 Nov 13:57:09 14:00:36 14° 42° (NE) 14:04:03 435.910
STARS 26 Nov 14:01:14 14:03:59 16° 90° (E) 14:06:44 437.465
YUBILEINY 26 Nov 14:04:50 14:13:32 74° 265° (W) 14:22:09 435.215
AUBIESAT-1 26 Nov 14:14:36 14:19:31 70° 293° (WNW) 14:24:21 437.475
M-CUBED/EXP-1 PRIME 26 Nov 14:20:15 14:25:07 59° 295° (WNW) 14:29:55 437.505
TISAT 1 26 Nov 14:20:59 14:22:07 11° 304° (NW) 14:23:14 437.305
AO-7 26 Nov 14:22:55 14:30:47 50° 59° (ENE) 14:38:42 29.400- 29.500
BEESAT 26 Nov 14:23:38 14:28:21 56° 290° (WNW) 14:33:02 436.000
ITAMSAT 1 26 Nov 14:31:16 14:35:47 29° 266° (W) 14:40:19 435.822/435.867
O/OREOS (USA 219) 26 Nov 14:37:17 14:41:21 33° 54° (NE) 14:45:24 437.305
KKS-1 26 Nov 14:41:49 14:46:13 56° 101° (E) 14:50:34 437.445
PHONESAT 2.4 26 Nov 14:42:29 14:43:47 12° 156° (SSE) 14:45:05 2401.200-2431.200
VERMONT LUNAR 26 Nov 14:50:27 14:52:32 15° 161° (SSE) 14:54:38 437.305
HORYU 2 26 Nov 15:01:22 15:05:38 46° 261° (W) 15:09:56 437.375
MaSat-1 26 Nov 15:04:43 15:07:27 39° 116° (ESE) 15:09:59 437.345
Gurwin Techsat 1B 26 Nov 15:06:50 15:11:11 26° 267° (W) 15:15:35 435.225
RS-15 26 Nov 15:16:46 15:26:21 37° 108° (ESE) 15:35:54 29.354- 29.394
ITUPSAT 1 26 Nov 15:20:32 15:24:04 21° 300° (WNW) 15:27:34 437.325
SWISSCUBE 26 Nov 15:31:47 15:34:38 16° 303° (WNW) 15:37:28 437.505
JAS-2 26 Nov 15:36:32 15:43:49 47° 64° (ENE) 15:51:11 435.910
STARS 26 Nov 15:36:33 15:40:53 61° 288° (WNW) 15:45:13 437.465
Cubesat XI-IV 26 Nov 15:37:52 15:40:07 13° 51° (NE) 15:42:22 437.490
AUBIESAT-1 26 Nov 15:51:14 15:53:41 14° 311° (NW) 15:56:07 437.475
MOZHAYETS 4 26 Nov 15:52:18 15:53:53 12° 86° (E) 15:55:27
M-CUBED/EXP-1 PRIME 26 Nov 15:57:23 15:59:13 12° 313° (NW) 16:01:02 437.505
YUBILEINY 26 Nov 16:03:42 16:08:44 17° 288° (WNW) 16:13:46 435.215
AO-7 26 Nov 16:15:46 16:23:39 47° 260° (W) 16:31:37 29.400- 29.500
CUTE-I 26 Nov 16:16:38 16:20:51 24° 59° (ENE) 16:25:03 437.470
O/OREOS (USA 219) 26 Nov 16:16:44 16:20:45 33° 254° (WSW) 16:24:44 437.305
PHONESAT 2.4 26 Nov 16:18:51 16:21:47 22° 172° (S) 16:24:44 2401.200-2431.200
KKS-1 26 Nov 16:19:19 16:22:29 19° 299° (WNW) 16:25:38 437.445
VERMONT LUNAR 26 Nov 16:27:23 16:30:19 23° 178° (S) 16:33:15 437.305
MaSat-1 26 Nov 16:40:53 16:42:07 12° 312° (NW) 16:43:19 437.345
Cubesat XI-IV 26 Nov 17:13:55 17:19:14 66° 71° (ENE) 17:24:34 437.490
JAS-2 26 Nov 17:21:21 17:28:45 49° 264° (W) 17:36:21 435.910
RS-15 26 Nov 17:26:54 17:37:50 75° 313° (NW) 17:48:55 29.354- 29.394
MOZHAYETS 4 26 Nov 17:27:07 17:31:49 88° 104° (ESE) 17:36:29
CUBESAT XI-V 26 Nov 17:36:36 17:36:57 10° 85° (E) 17:37:19 437.345
CUTE-I 26 Nov 17:55:13 18:00:31 61° 258° (WSW) 18:05:51 437.470
PHONESAT 2.4 26 Nov 17:57:03 17:59:57 21° 189° (S) 18:02:50 2401.200-2431.200
GONETS M04 26 Nov 17:58:31 18:06:20 33° 63° (ENE) 18:14:03
HO-68 26 Nov 18:01:25 18:06:05 19° 47° (NE) 18:10:46 435.675
VERMONT LUNAR 26 Nov 18:05:37 18:08:09 18° 195° (SSW) 18:10:40 437.305
STRAND 1 26 Nov 18:20:09 18:24:26 26° 93° (E) 18:28:40 437.568
PRISM 26 Nov 18:24:45 18:29:01 68° 103° (ESE) 18:33:13 437.425
CUTE 1.7 & AOD 2 26 Nov 18:43:35 18:45:13 12° 57° (ENE) 18:46:51 437.475
GOMX 1 26 Nov 18:54:12 18:56:05 12° 58° (ENE) 18:57:55 467.674
Cubesat XI-IV 26 Nov 18:55:52 18:59:48 21° 269° (W) 19:03:45 437.490
MOZHAYETS 4 26 Nov 19:05:56 19:08:23 14° 303° (WNW) 19:10:49
CUBESAT XI-V 26 Nov 19:10:29 19:15:12 80° 103° (ESE) 19:19:51 437.345
SEEDS 26 Nov 19:13:58 19:17:02 20° 62° (ENE) 19:20:07 437.485
Oscar 11 26 Nov 19:23:12 19:24:41 12° 56° (NE) 19:26:10 145.826/435.025
BRITE-PL 26 Nov 19:23:57 19:28:09 30° 67° (ENE) 19:32:07 437.365/2234.400
BEESAT 3 26 Nov 19:24:35 19:27:29 19° 113° (ESE) 19:30:26 437.485
AAUSAT CUBESAT 2 26 Nov 19:29:08 19:32:18 21° 63° (ENE) 19:35:30 437.432
DELFI C3 26 Nov 19:32:45 19:33:59 11° 57° (ENE) 19:35:13 145.870
AIST 1 26 Nov 19:34:07 19:38:27 60° 95° (E) 19:42:49
PCSat 26 Nov 19:35:37 19:40:51 52° 117° (ESE) 19:46:07 145.827
PHONESAT 2.4 26 Nov 19:37:18 19:37:55 10° 206° (SSW) 19:38:32 2401.200-2431.200
BEESAT 2 26 Nov 19:40:08 19:43:28 24° 115° (ESE) 19:46:51 435.950
CANX-2 26 Nov 19:41:57 19:45:57 44° 70° (ENE) 19:50:00 2200.000
RS-15 26 Nov 19:42:17 19:52:14 38° 343° (NNW) 20:02:25 29.354- 29.394
COMPASS 1 26 Nov 19:44:18 19:48:01 32° 67° (ENE) 19:51:47 437.405
DOVE 4 26 Nov 19:44:22 19:48:04 26° 66° (ENE) 19:51:38 437.250
HO-68 26 Nov 19:45:30 19:52:38 71° 68° (ENE) 19:59:48 435.675
CUBEBUG 2 26 Nov 19:46:12 19:47:33 11° 57° (ENE) 19:48:55 437.445
DX 1 26 Nov 19:47:01 19:50:05 19° 60° (ENE) 19:53:09 434.975-435.025
GONETS M04 26 Nov 19:55:08 20:03:53 68° 267° (W) 20:12:33
STRAND 1 26 Nov 19:58:57 20:03:51 48° 292° (WNW) 20:08:43 437.568
PRISM 26 Nov 20:01:32 20:04:04 16° 301° (WNW) 20:06:36 437.425
CINEMA 3 26 Nov 20:14:19 20:18:06 30° 67° (ENE) 20:21:48 145.822/145.860
CUTE 1.7 & AOD 2 26 Nov 20:16:16 20:20:29 90° 82° (E) 20:24:45 437.475
ZACube-1 26 Nov 20:16:36 20:19:16 17° 61° (ENE) 20:21:57 437.345
AIST 2 26 Nov 20:17:41 20:21:21 29° 117° (ESE) 20:25:05 435.215
VELOX 1 26 Nov 20:21:01 20:23:30 15° 58° (ENE) 20:25:59 145.980
GOMX 1 26 Nov 20:28:56 20:33:38 87° 76° (ENE) 20:38:04 467.674
UKube-1 26 Nov 20:45:10 20:49:28 61° 71° (ENE) 20:53:47 .
AISAT 26 Nov 20:46:25 20:50:02 25° 63° (ENE) 20:53:38 437.250
SEEDS 26 Nov 20:48:31 20:52:34 48° 261° (W) 20:56:41 437.485
CUBESAT XI-V 26 Nov 20:49:18 20:52:03 16° 302° (WNW) 20:54:47 437.345
FUNcube-1 26 Nov 20:50:07 20:53:52 33° 68° (ENE) 20:57:37 145.935
Oscar 11 26 Nov 20:55:51 21:00:09 83° 75° (ENE) 21:04:30 145.826/435.025
CUBEBUG 1 26 Nov 20:58:01 21:00:07 13° 57° (ENE) 21:02:12 437.445
BEESAT 3 26 Nov 21:01:14 21:05:19 60° 312° (NW) 21:09:29 437.485
BRITE-PL 26 Nov 21:02:06 21:06:38 36° 263° (W) 21:10:52 437.365/2234.400
AAUSAT CUBESAT 2 26 Nov 21:03:46 21:07:45 43° 262° (W) 21:11:46 437.432
DELFI C3 26 Nov 21:04:33 21:08:37 87° 76° (ENE) 21:12:45 145.870
50 SAT 26 Nov 21:11:38 21:15:07 29° 67° (ENE) 21:18:38 437.505
AIST 1 26 Nov 21:13:41 21:16:33 17° 295° (WNW) 21:19:26
BEESAT 2 26 Nov 21:17:30 21:21:31 48° 315° (NW) 21:25:37 435.950
UWE-3 26 Nov 21:17:52 21:22:04 74° 74° (ENE) 21:26:14 435.000/436.395/437.385
CANX-2 26 Nov 21:18:57 21:22:08 21° 268° (W) 21:25:20 2200.000
CUBEBUG 2 26 Nov 21:19:23 21:23:38 88° 76° (ENE) 21:27:50 437.445
PCSat 26 Nov 21:19:34 21:24:30 34° 318° (NW) 21:29:27 145.827
COMPASS 1 26 Nov 21:20:14 21:23:48 27° 266° (W) 21:27:25 437.405
DOVE 4 26 Nov 21:21:30 21:25:44 38° 262° (W) 21:29:48 437.250
DX 1 26 Nov 21:21:37 21:25:56 57° 259° (WSW) 21:30:17 434.975-435.025
HUMSAT D 26 Nov 21:27:58 21:31:57 51° 71° (ENE) 21:35:58 437.325/437.525
HO-68 26 Nov 21:35:03 21:40:57 27° 268° (W) 21:46:53 435.675
ANTELSAT 26 Nov 21:40:38 21:42:39 13° 88° (E) 21:44:41 437.575/2403.000
ZACube-1 26 Nov 21:51:08 21:55:16 58° 259° (W) 21:59:24 437.345
QB50P2 26 Nov 21:51:28 21:52:07 10° 87° (E) 21:52:45 145.880/145.840
CINEMA 3 26 Nov 21:51:31 21:55:20 30° 264° (W) 21:59:04 145.822/145.860
GONETS M04 26 Nov 21:54:21 21:58:56 16° 289° (WNW) 22:03:31
VELOX 1 26 Nov 21:55:02 21:59:31 80° 256° (WSW) 22:04:01 145.980
AIST 2 26 Nov 21:55:48 21:59:52 42° 316° (NW) 22:04:00 435.215
DUCHIFAT 1 26 Nov 21:56:13 21:57:39 12° 87° (E) 21:59:05 145.980
CUTE 1.7 & AOD 2 26 Nov 21:56:47 21:57:05 10° 274° (W) 21:57:23 437.475
ESTCUBE 1 26 Nov 21:56:53 22:01:13 45° 69° (ENE) 22:05:34 437.505/2401.250
RS-15 26 Nov 21:58:09 22:08:14 38° 17° (NNE) 22:18:37 29.354- 29.394
DANDE 26 Nov 22:04:09 22:05:01 10° 65° (ENE) 22:05:54 436.750
TISAT 1 26 Nov 22:05:14 22:07:53 16° 60° (ENE) 22:10:31 437.305
GOMX 1 26 Nov 22:10:44 22:12:19 12° 272° (W) 22:13:54 467.674
NANOSAT C BR1 26 Nov 22:14:33 22:17:29 18° 91° (E) 22:20:24 145.865
SPROUT 26 Nov 22:17:25 22:20:24 19° 61° (ENE) 22:23:23 437.525
AISAT 26 Nov 22:22:11 22:26:28 43° 261° (W) 22:30:45 437.250
UKube-1 26 Nov 22:23:21 22:26:03 16° 270° (W) 22:28:45 .
QB50P1 26 Nov 22:24:16 22:27:37 23° 93° (E) 22:30:58 145.935-145.965
FUNcube-1 26 Nov 22:26:46 22:30:18 26° 266° (W) 22:33:49 145.935
BUGSAT 1 26 Nov 22:30:23 22:33:32 21° 93° (E) 22:36:37 437.445
CUBEBUG 1 26 Nov 22:31:23 22:35:51 90° 255° (WSW) 22:40:19 437.445
TIGRISAT 26 Nov 22:32:38 22:36:47 39° 98° (E) 22:41:00 435.000
Oscar 11 26 Nov 22:35:31 22:36:56 11° 273° (W) 22:38:22 145.826/435.025
BEESAT 3 26 Nov 22:41:55 22:44:25 15° 334° (NNW) 22:46:56 437.485
UNISAT 6 26 Nov 22:46:41 22:51:03 54° 100° (E) 22:55:30 437.425
50 SAT 26 Nov 22:46:55 22:50:26 28° 265° (W) 22:53:57 437.505
POPSAT HIP 1 26 Nov 22:48:46 22:52:45 39° 98° (E) 22:56:42 437.405
UWE-3 26 Nov 22:57:29 22:59:09 12° 272° (W) 23:00:49 435.000/436.395/437.385
BEESAT 2 26 Nov 22:58:38 23:00:49 14° 337° (NNW) 23:03:01 435.950
CUBEBUG 2 26 Nov 23:00:41 23:00:59 10° 273° (W) 23:01:17 437.445
HUMSAT D 26 Nov 23:05:21 23:08:05 17° 269° (W) 23:10:50 437.325/437.525
MaSat-1 26 Nov 23:05:55 23:07:09 13° 48° (NE) 23:08:22 437.345
PCSat 26 Nov 23:07:04 23:09:37 13° 342° (NNW) 23:12:11 145.827
CUSAT 1 26 Nov 23:14:30 23:18:50 51° 76° (ENE) 23:24:38 437.405
ANTELSAT 26 Nov 23:15:33 23:20:00 80° 286° (WNW) 23:24:32 437.575/2403.000
ITUPSAT 1 26 Nov 23:16:51 23:19:55 17° 57° (ENE) 23:23:00 437.325
ISS 26 Nov 23:18:14 23:21:01 25° 143° (SE) 23:23:48 145.825
POLYITAN 1 26 Nov 23:22:47 23:27:02 88° 105° (ESE) 23:31:16 437.675
QB50P2 26 Nov 23:24:25 23:28:41 88° 284° (WNW) 23:32:55 145.880/145.840
SWISSCUBE 26 Nov 23:26:43 23:30:21 22° 60° (ENE) 23:34:00 437.505
DUCHIFAT 1 26 Nov 23:29:52 23:34:06 80° 286° (WNW) 23:38:18 145.980
AUBIESAT-1 26 Nov 23:33:14 23:37:08 37° 61° (ENE) 23:41:23 437.475
ESTCUBE 1 26 Nov 23:34:40 23:38:18 23° 267° (W) 23:41:57 437.505/2401.250
AIST 2 26 Nov 23:37:30 23:39:37 13° 339° (NNW) 23:41:44 435.215
M-CUBED/EXP-1 PRIME 26 Nov 23:39:00 23:43:01 45° 63° (ENE) 23:47:24 437.505
TISAT 1 26 Nov 23:39:01 23:43:16 65° 258° (WSW) 23:47:31 437.305
DANDE 26 Nov 23:44:30 23:48:47 79° 78° (ENE) 23:54:38 436.750
NANOSAT C BR1 26 Nov 23:49:35 23:53:40 50° 289° (WNW) 23:57:45 145.865
SPROUT 26 Nov 23:51:52 23:56:07 56° 259° (W) 00:00:23 437.525
BEESAT 26 Nov 23:56:40 00:01:01 35° 66° (ENE) 00:05:23 436.000
QB50P1 26 Nov 23:59:43 00:03:41 40° 291° (WNW) 00:07:37 145.935-145.965
BUGSAT 1 27 Nov 00:05:22 00:09:13 40° 291° (WNW) 00:13:01 437.445
TIGRISAT 27 Nov 00:09:45 00:13:24 26° 295° (WNW) 00:17:08 435.000
KKS-1 27 Nov 00:10:32 00:12:16 12° 55° (NE) 00:13:59 437.445
RS-15 27 Nov 00:11:29 00:22:40 75° 47° (NE) 00:34:19 29.354- 29.394
CUBEBUG 1 27 Nov 00:11:42 00:12:53 11° 273° (W) 00:14:05 437.445
UNISAT 6 27 Nov 00:24:19 00:27:32 20° 298° (WNW) 00:30:47 437.425
POPSAT HIP 1 27 Nov 00:25:06 00:28:30 24° 296° (WNW) 00:31:53 437.405
MaSat-1 27 Nov 00:39:47 00:41:41 22° 246° (WSW) 00:43:37 437.345
ITUPSAT 1 27 Nov 00:52:25 00:57:15 78° 256° (WSW) 01:02:06 437.325
PCSat 27 Nov 00:53:57 00:55:36 11° 9° (N) 00:57:16 145.827
ISS 27 Nov 00:54:08 00:57:26 76° 341° (NNW) 01:00:44 145.825
ANTELSAT 27 Nov 00:54:34 00:56:07 12° 304° (NW) 00:57:40 437.575/2403.000
CUSAT 1 27 Nov 00:58:16 01:01:54 23° 267° (W) 01:06:21 437.405
POLYITAN 1 27 Nov 01:00:37 01:02:22 12° 303° (WNW) 01:04:06 437.675
STARS 27 Nov 01:02:02 01:05:34 24° 63° (ENE) 01:09:06 437.465
QB50P2 27 Nov 01:02:21 01:03:57 12° 303° (WNW) 01:05:33 145.880/145.840
ITAMSAT 1 27 Nov 01:02:41 01:04:06 11° 85° (E) 01:05:31 435.822/435.867
SWISSCUBE 27 Nov 01:03:07 01:07:51 57° 259° (W) 01:12:37 437.505
DUCHIFAT 1 27 Nov 01:08:14 01:09:15 11° 304° (NW) 01:10:17 145.980
AUBIESAT-1 27 Nov 01:08:37 01:12:14 28° 261° (W) 01:16:08 437.475
M-CUBED/EXP-1 PRIME 27 Nov 01:15:00 01:18:20 23° 263° (W) 01:21:54 437.505
YUBILEINY 27 Nov 01:15:26 01:22:31 29° 80° (E) 01:29:34 435.215
DANDE 27 Nov 01:29:45 01:32:07 14° 270° (W) 01:34:48 436.750
BEESAT 27 Nov 01:34:36 01:38:53 32° 264° (W) 01:43:13 436.000
Gurwin Techsat 1B 27 Nov 01:39:26 01:42:29 15° 87° (E) 01:45:30 435.225
KKS-1 27 Nov 01:43:44 01:48:12 82° 74° (ENE) 01:52:40 437.445
Oscar 19 27 Nov 01:43:49 01:48:58 62° 102° (ESE) 01:54:05 437.125/150
BEESAT 3 27 Nov 02:02:35 02:04:35 13° 22° (NNE) 02:06:34 437.485
BEESAT 2 27 Nov 02:18:43 02:21:07 15° 25° (NNE) 02:23:31 435.950
RS-15 27 Nov 02:24:23 02:34:19 39° 251° (WSW) 02:44:39 29.354- 29.394
ISS 27 Nov 02:31:08 02:34:20 46° 1° (N) 02:37:32 145.825
ITUPSAT 1 27 Nov 02:35:14 02:35:58 10° 275° (W) 02:36:42 437.325
PCSat 27 Nov 02:36:43 02:41:06 24° 35° (NE) 02:45:28 145.827
STARS 27 Nov 02:37:40 02:41:51 42° 261° (W) 02:46:04 437.465
ITAMSAT 1 27 Nov 02:39:16 02:44:29 76° 104° (ESE) 02:49:39 435.822/435.867
HORYU 2 27 Nov 02:49:24 02:53:11 26° 94° (E) 02:56:57 437.375
MOZHAYETS 4 27 Nov 02:57:32 03:00:40 18° 60° (ENE) 03:03:49
AIST 2 27 Nov 02:57:48 03:00:37 17° 27° (NNE) 03:03:25 435.215
YUBILEINY 27 Nov 03:09:42 03:18:30 74° 282° (WNW) 03:27:19 435.215
Gurwin Techsat 1B 27 Nov 03:17:48 03:23:09 85° 286° (WNW) 03:28:28 435.225
KKS-1 27 Nov 03:23:37 03:25:27 12° 272° (W) 03:27:16 437.445
Oscar 19 27 Nov 03:23:58 03:27:54 23° 301° (WNW) 03:31:50 437.125/150
BEESAT 3 27 Nov 03:39:50 03:43:52 43° 44° (NE) 03:47:52 437.485
SO-50 27 Nov 03:44:10 03:48:36 57° 123° (ESE) 03:53:12 436.795
PRISM 27 Nov 03:47:00 03:48:31 12° 56° (NE) 03:50:01 437.425
BEESAT 2 27 Nov 03:56:11 04:00:21 54° 47° (NE) 04:04:27 435.950
STRAND 1 27 Nov 04:05:41 04:06:25 10° 50° (NE) 04:07:09 437.568
ISS 27 Nov 04:07:54 04:11:13 85° 24° (NNE) 04:14:31 145.825
AO-7 27 Nov 04:12:17 04:20:24 51° 101° (E) 04:28:28 29.400- 29.500
PCSat 27 Nov 04:19:46 04:25:14 87° 237° (WSW) 04:30:39 145.827
ITAMSAT 1 27 Nov 04:19:51 04:23:25 19° 303° (WNW) 04:26:58 435.822/435.867
HORYU 2 27 Nov 04:25:47 04:29:59 39° 292° (WNW) 04:34:09 437.375
JAS-2 27 Nov 04:28:08 04:34:02 27° 88° (E) 04:39:21 435.910
MOZHAYETS 4 27 Nov 04:32:52 04:37:26 65° 259° (WSW) 04:42:04
AIST 2 27 Nov 04:35:46 04:40:05 65° 49° (NE) 04:44:20 435.215
CUBESAT XI-V 27 Nov 04:42:15 04:45:22 18° 59° (ENE) 04:48:29 437.345
O/OREOS (USA 219) 27 Nov 04:54:47 04:57:42 17° 101° (E) 05:00:36 437.305
Gurwin Techsat 1B 27 Nov 04:59:16 05:02:21 16° 306° (NW) 05:05:26 435.225
YUBILEINY 27 Nov 05:11:02 05:17:05 20° 307° (NW) 05:23:09 435.215
BEESAT 3 27 Nov 05:18:23 05:21:57 27° 244° (WSW) 05:25:29 437.485
PRISM 27 Nov 05:19:09 05:23:22 85° 75° (ENE) 05:27:39 437.425
SO-50 27 Nov 05:25:25 05:29:28 29° 324° (NW) 05:33:38 436.795
Cubesat XI-IV 27 Nov 05:28:21 05:32:07 19° 90° (E) 05:35:51 437.490
BEESAT 2 27 Nov 05:35:06 05:38:20 22° 246° (WSW) 05:41:31 435.950
AIST 1 27 Nov 05:38:04 05:41:37 23° 69° (ENE) 05:45:07
STRAND 1 27 Nov 05:39:31 05:44:32 55° 69° (ENE) 05:49:34 437.568
ISS 27 Nov 05:44:57 05:47:34 22° 219° (SW) 05:50:10 145.825
PCSat 27 Nov 06:04:49 06:07:51 15° 256° (WSW) 06:10:53 145.827
AO-7 27 Nov 06:05:19 06:13:09 47° 302° (WNW) 06:20:59 29.400- 29.500
CUTE-I 27 Nov 06:08:36 06:13:36 40° 98° (E) 06:18:34 437.470
JAS-2 27 Nov 06:12:33 06:19:44 66° 291° (WNW) 06:26:03 435.910
AIST 2 27 Nov 06:15:20 06:18:16 18° 248° (WSW) 06:21:11 435.215
CUBESAT XI-V 27 Nov 06:17:35 06:22:18 71° 258° (WSW) 06:27:03 437.345
O/OREOS (USA 219) 27 Nov 06:32:11 06:36:38 61° 299° (WNW) 06:41:05 437.305
PRISM 27 Nov 06:58:24 06:59:33 11° 273° (W) 07:00:41 437.425
GONETS M04 27 Nov 07:05:22 07:12:45 32° 81° (E) 07:20:10
Cubesat XI-IV 27 Nov 07:07:25 07:12:44 69° 289° (WNW) 07:18:00 437.490
SO-50 27 Nov 07:09:24 07:11:33 13° 348° (NNW) 07:13:44 436.795
AIST 1 27 Nov 07:15:21 07:19:27 39° 268° (W) 07:23:30
STRAND 1 27 Nov 07:20:02 07:24:04 23° 268° (W) 07:28:07 437.568
CUTE-I 27 Nov 07:48:51 07:53:36 34° 296° (WNW) 07:58:19 437.470
JAS-2 27 Nov 07:59:01 08:03:21 17° 313° (NW) 08:07:26 435.910
AO-7 27 Nov 07:59:41 08:03:56 15° 326° (NW) 08:08:12 29.400- 29.500
CUTE 1.7 & AOD 2 27 Nov 07:59:52 08:01:44 13° 88° (E) 08:03:36 437.475
O/OREOS (USA 219) 27 Nov 08:15:25 08:17:01 12° 321° (NW) 08:18:37 437.305
UNISAT 6 27 Nov 08:17:12 08:18:01 11° 55° (NE) 08:18:50 437.425
